Location: Strawberry
(45.6646°N, 111.9596°W)
Time: 16:23:42
(UTC+00:00)

SR - Pass Details

Date: 11 October 2022
Orbit: 577 x 874 km, 66.7° (Epoch: 05 December)

Event Time Altitude Azimuth Distance (km) Brightness Sun altitude
Rises 01:36:08 0° 186° (S) 3,425 ? -8.7°
Reaches altitude 10° 01:38:44 10° 179° (S) 2,508 ? -9.2°
Maximum altitude 01:44:06 39° 113° (ESE) 1,297 ? -10.1°
Drops below altitude 10° 01:49:29 10° 46° (NE) 2,509 ? -11.0°
Sets 01:52:04 0° 39° (NE) 3,427 ? -11.5°
